Location: Cairns City
(16.9233°S, 145.7733°E)
Time: 23:11:00
(UTC+10:00)

Hubble Space Telescope - Visible Passes

Search period start: 13 December 2017 00:00
Search period end: 23 December 2017 00:00
Orbit: 538 x 541 km, 28.5° (Epoch: 12 December)

Date Brightness Start Highest point End Pass type
(mag) Time Alt. Az. Time Alt. Az. Time Alt. Az.
13 Dec 3.8 02:46:58 13° ESE 02:46:58 13° ESE 02:47:26 10° ESE visible
13 Dec 2.2 04:22:18 18° WSW 04:24:39 30° SSW 04:28:20 10° SE visible
14 Dec 4.0 02:37:09 11° ESE 02:37:09 11° ESE 02:37:15 10° ESE visible
14 Dec 2.5 04:12:29 17° SW 04:14:32 25° SSW 04:18:01 10° SE visible
15 Dec 2.8 04:02:40 17° SW 04:04:26 22° SSW 04:07:42 10° SE visible
16 Dec 2.9 03:52:50 16° SW 03:54:20 19° S 03:57:24 10° SE visible
17 Dec 3.0 03:43:01 16° SSW 03:44:16 18° S 03:47:09 10° SE visible
18 Dec 3.1 03:33:15 16° SSW 03:34:12 17° S 03:36:56 10° SE visible
18 Dec 3.3 05:13:11 10° SW 05:16:11 19° S 05:19:12 10° SE visible
19 Dec 3.2 03:23:31 16° SSW 03:24:08 16° S 03:26:47 10° SE visible
19 Dec 3.1 05:02:53 10° SW 05:06:06 21° SSE 05:09:19 10° ESE visible
20 Dec 3.3 03:13:53 16° S 03:14:04 16° S 03:16:44 10° SE visible
20 Dec 3.0 04:52:34 10° SW 04:56:00 24° SSE 04:59:25 10° ESE visible
21 Dec 3.4 03:04:23 16° S 03:04:23 16° S 03:06:43 10° SE visible
21 Dec 2.7 04:42:15 10° SW 04:45:52 28° SSE 04:49:30 10° ESE visible
22 Dec 3.6 02:55:02 16° SSE 02:55:02 16° SSE 02:56:46 10° SE visible
22 Dec 2.4 04:31:55 10° SW 04:35:44 34° SSE 04:39:32 10° E visible
